Tracking 19634 objects as of 21-May-2019
HD Live streaming from Space Station
objects crossing your sky now

METEOR 2-21

Track METEOR 2-21 now!
10-day predictions
METEOR 2-21 is classified as:


NORAD ID: 22782
Int'l Code: 1993-055A
Perigee: 942.2 km
Apogee: 972.8 km
Inclination: 82.5 °
Period: 104.1 minutes
Semi major axis: 7328 km
RCS: 4.7976 m2 (large)
Launch date: August 31, 1993
Source: Commonwealth of Independent States (former USSR) (CIS)
Launch site: PLESETSK MISSILE AND SPACE COMPLEX (PKMTR)
aabbcc
Your satellite tracking list
Your tracking list is empty




NASA's NSSDC Master Catalog

Two Line Element Set (TLE):
1 22782U 93055A   19140.61907132 -.00000001 +00000-0 -13972-4 0  9996
2 22782 082.5496 186.1442 0020890 259.2303 212.4261 13.83817364298579
Source of the keplerian elements: AMSAT